User: anonymous   Login
Location: Unspecified
(0.0000°N, 0.0000°E)
Time: 11:51:25
(UTC+00:00)
Language:

TECHNOSAT - Orbit

View from above orbital plane
View from above orbital plane
View from above satellite
View from above satellite

Ground track
Ground track

The orbit data is extracted from the following two-line orbital elements,

1 42829U 17042E   18168.76667574  .00000043  00000-0  97957-5 0  9990
2 42829  97.5967  71.0988 0013809 191.6830 168.4070 14.90825693 50415
Epoch (UTC): 17 June 2018 18:24:00
Eccentricity: 0.0013809
inclination: 97.5967°
perigee height: 586 km
apogee height: 605 km
right ascension of ascending node: 71.0988°
argument of perigee: 191.6830°
revolutions per day: 14.90825693
mean anomaly at epoch: 168.4070°
orbit number at epoch: 5041

The dashed part of the orbit path shows where the satellite is in the earth's shadow,  

DLR